Time,TemperatureF,DewpointF,PressureIn,WindDirection,WindDirectionDegrees,WindSpeedMPH,WindSpeedGustMPH,Humidity,HourlyPrecipIn,Conditions,Clouds,dailyrainin,SoftwareType,DateUTC
2013-03-04 00:01:00,10.0,4.0,30.11,SE,126,0.0,0.0,76,0.00,,,0.00,,2013-03-04 06:01:00,
2013-03-04 00:11:00,10.0,4.0,30.11,SE,126,0.0,0.0,76,0.00,,,0.00,,2013-03-04 06:11:00,
2013-03-04 00:21:00,9.0,3.0,30.11,SE,126,0.0,0.0,76,0.00,,,0.00,,2013-03-04 06:21:00,
2013-03-04 00:32:00,10.0,4.0,30.12,SE,126,0.0,0.0,77,0.00,,,0.00,,2013-03-04 06:32:00,
2013-03-04 00:42:00,10.0,4.0,30.12,SE,126,0.0,0.0,77,0.00,,,0.00,,2013-03-04 06:42:00,
2013-03-04 00:51:00,10.0,4.0,30.12,SE,126,0.0,0.0,77,0.00,,,0.00,,2013-03-04 06:51:00,
2013-03-04 01:01:00,9.0,4.0,30.13,SE,126,0.0,0.0,78,0.00,,,0.00,,2013-03-04 07:01:00,
2013-03-04 01:11:00,9.0,4.0,30.13,SE,126,0.0,0.0,78,0.00,,,0.00,,2013-03-04 07:11:00,
2013-03-04 01:21:00,10.0,5.0,30.13,SE,126,0.0,0.0,78,0.00,,,0.00,,2013-03-04 07:21:00,
2013-03-04 01:32:00,10.0,5.0,30.14,SE,126,0.0,0.0,78,0.00,,,0.00,,2013-03-04 07:32:00,
2013-03-04 01:41:00,10.0,5.0,30.14,SE,126,0.0,0.0,78,0.00,,,0.00,,2013-03-04 07:41:00,
2013-03-04 01:51:00,10.0,5.0,30.14,SE,126,0.0,0.0,78,0.00,,,0.00,,2013-03-04 07:51:00,
2013-03-04 02:02:00,10.0,5.0,30.15,SE,126,0.0,0.0,78,0.00,,,0.00,,2013-03-04 08:02:00,
2013-03-04 02:11:00,10.0,5.0,30.15,SE,126,0.0,0.0,78,0.00,,,0.00,,2013-03-04 08:11:00,
2013-03-04 02:21:00,10.0,5.0,30.15,SE,126,0.0,0.0,78,0.00,,,0.00,,2013-03-04 08:21:00,
2013-03-04 02:32:00,11.0,6.0,30.15,SE,126,0.0,0.0,78,0.00,,,0.00,,2013-03-04 08:32:00,
2013-03-04 02:42:00,11.0,6.0,30.15,SE,126,0.0,0.0,78,0.00,,,0.00,,2013-03-04 08:42:00,
2013-03-04 02:52:00,12.0,6.0,30.15,SE,126,0.0,0.0,77,0.00,,,0.00,,2013-03-04 08:52:00,
2013-03-04 03:01:00,12.0,6.0,30.14,SE,126,0.0,0.0,77,0.00,,,0.00,,2013-03-04 09:01:00,
2013-03-04 03:11:00,12.0,6.0,30.14,SE,126,0.0,0.0,77,0.00,,,0.00,,2013-03-04 09:11:00,
2013-03-04 03:21:00,12.0,6.0,30.14,SE,126,0.0,0.0,77,0.00,,,0.00,,2013-03-04 09:21:00,
2013-03-04 03:32:00,11.0,6.0,30.14,SE,126,0.0,0.0,78,0.00,,,0.00,,2013-03-04 09:32:00,
2013-03-04 03:42:00,11.0,6.0,30.14,SE,126,0.0,0.0,78,0.00,,,0.00,,2013-03-04 09:42:00,
2013-03-04 03:52:00,11.0,6.0,30.14,SE,126,0.0,0.0,79,0.00,,,0.00,,2013-03-04 09:52:00,
2013-03-04 04:01:00,11.0,6.0,30.14,SE,126,0.0,0.0,79,0.00,,,0.00,,2013-03-04 10:01:00,
2013-03-04 04:11:00,11.0,6.0,30.14,SE,126,0.0,0.0,79,0.00,,,0.00,,2013-03-04 10:11:00,
2013-03-04 04:21:00,11.0,6.0,30.14,SE,126,0.0,1.0,79,0.00,,,0.00,,2013-03-04 10:21:00,
2013-03-04 04:31:00,11.0,6.0,30.14,SE,126,0.0,1.0,80,0.00,,,0.00,,2013-03-04 10:31:00,
2013-03-04 04:42:00,11.0,6.0,30.14,SE,126,0.0,1.0,80,0.00,,,0.00,,2013-03-04 10:42:00,
2013-03-04 04:52:00,11.0,6.0,30.14,SE,126,0.0,2.0,80,0.00,,,0.00,,2013-03-04 10:52:00,
2013-03-04 05:01:00,11.0,6.0,30.15,SE,126,0.0,2.0,79,0.00,,,0.00,,2013-03-04 11:01:00,
2013-03-04 05:11:00,11.0,6.0,30.15,SE,126,0.0,2.0,79,0.00,,,0.00,,2013-03-04 11:11:00,
2013-03-04 05:22:00,11.0,6.0,30.14,SE,126,2.0,3.0,80,0.00,,,0.00,,2013-03-04 11:22:00,
2013-03-04 05:32:00,10.0,5.0,30.14,SE,126,0.0,2.0,80,0.00,,,0.00,,2013-03-04 11:32:00,
2013-03-04 05:42:00,10.0,5.0,30.14,SE,126,0.0,2.0,80,0.00,,,0.00,,2013-03-04 11:42:00,
2013-03-04 05:52:00,10.0,5.0,30.14,SE,126,1.0,1.0,81,0.00,,,0.00,,2013-03-04 11:52:00,
2013-03-04 06:01:00,10.0,5.0,30.15,SE,126,0.0,1.0,81,0.00,,,0.00,,2013-03-04 12:01:00,
2013-03-04 06:11:00,10.0,5.0,30.15,SE,126,0.0,1.0,81,0.00,,,0.00,,2013-03-04 12:11:00,
2013-03-04 06:22:00,10.0,5.0,30.14,SE,126,1.0,1.0,81,0.00,,,0.00,,2013-03-04 12:22:00,
2013-03-04 06:32:00,10.0,5.0,30.14,SE,126,1.0,2.0,81,0.00,,,0.00,,2013-03-04 12:32:00,
2013-03-04 06:42:00,10.0,5.0,30.14,SE,126,1.0,2.0,81,0.00,,,0.00,,2013-03-04 12:42:00,
2013-03-04 06:53:00,11.0,6.0,30.14,SE,126,0.0,1.0,81,0.00,,,0.00,,2013-03-04 12:53:00,
2013-03-04 07:02:00,11.0,6.0,30.14,SE,126,0.0,1.0,81,0.00,,,0.00,,2013-03-04 13:02:00,
2013-03-04 07:11:00,11.0,6.0,30.14,SE,126,0.0,1.0,81,0.00,,,0.00,,2013-03-04 13:11:00,
2013-03-04 07:21:00,13.0,8.0,30.14,SE,126,0.0,1.0,80,0.00,,,0.00,,2013-03-04 13:21:00,
2013-03-04 07:32:00,14.0,8.0,30.15,SE,126,0.0,2.0,78,0.00,,,0.00,,2013-03-04 13:32:00,
2013-03-04 07:41:00,14.0,8.0,30.15,SE,126,0.0,2.0,78,0.00,,,0.00,,2013-03-04 13:41:00,
2013-03-04 07:52:00,14.0,8.0,30.14,ENE,74,0.0,3.0,77,0.00,,,0.00,,2013-03-04 13:52:00,
2013-03-04 08:01:00,15.0,9.0,30.14,ESE,117,2.0,3.0,76,0.00,,,0.00,,2013-03-04 14:01:00,
2013-03-04 08:11:00,15.0,9.0,30.14,ESE,117,2.0,3.0,76,0.00,,,0.00,,2013-03-04 14:11:00,
2013-03-04 08:22:00,15.0,9.0,30.14,SE,136,2.0,4.0,75,0.00,,,0.00,,2013-03-04 14:22:00,
2013-03-04 08:32:00,16.0,9.0,30.14,SE,126,2.0,3.0,75,0.00,,,0.00,,2013-03-04 14:32:00,
2013-03-04 08:42:00,16.0,9.0,30.14,SE,126,2.0,3.0,75,0.00,,,0.00,,2013-03-04 14:42:00,
2013-03-04 08:52:00,17.0,10.0,30.14,ENE,61,2.0,5.0,74,0.00,,,0.00,,2013-03-04 14:52:00,
2013-03-04 09:01:00,18.0,11.0,30.14,SE,144,0.0,5.0,73,0.00,,,0.00,,2013-03-04 15:01:00,
2013-03-04 09:11:00,18.0,11.0,30.14,SE,144,0.0,5.0,73,0.00,,,0.00,,2013-03-04 15:11:00,
2013-03-04 09:21:00,19.0,11.0,30.14,ESE,115,4.0,4.0,72,0.00,,,0.00,,2013-03-04 15:21:00,
2013-03-04 09:32:00,20.0,12.0,30.14,ENE,66,1.0,4.0,72,0.00,,,0.00,,2013-03-04 15:32:00,
2013-03-04 09:42:00,20.0,12.0,30.14,ENE,66,1.0,4.0,72,0.00,,,0.00,,2013-03-04 15:42:00,
2013-03-04 09:52:00,20.0,12.0,30.14,ESE,109,3.0,5.0,72,0.00,,,0.00,,2013-03-04 15:52:00,
2013-03-04 10:02:00,22.0,14.0,30.13,ESE,109,1.0,7.0,72,0.00,,,0.00,,2013-03-04 16:02:00,
2013-03-04 10:11:00,22.0,14.0,30.13,ESE,109,1.0,7.0,72,0.00,,,0.00,,2013-03-04 16:11:00,
2013-03-04 10:21:00,23.0,16.0,30.13,ESE,119,1.0,7.0,73,0.00,,,0.00,,2013-03-04 16:21:00,
2013-03-04 10:31:00,24.0,17.0,30.12,East,94,1.0,7.0,73,0.00,,,0.00,,2013-03-04 16:31:00,
2013-03-04 10:42:00,24.0,17.0,30.12,East,94,1.0,7.0,73,0.00,,,0.00,,2013-03-04 16:42:00,
2013-03-04 10:52:00,25.0,17.0,30.12,ENE,68,3.0,7.0,71,0.00,,,0.00,,2013-03-04 16:52:00,
2013-03-04 11:02:00,26.0,18.0,30.12,ESE,119,4.0,9.0,71,0.00,,,0.00,,2013-03-04 17:02:00,
2013-03-04 11:11:00,26.0,18.0,30.12,ESE,119,4.0,9.0,71,0.00,,,0.00,,2013-03-04 17:11:00,
2013-03-04 11:22:00,26.0,18.0,30.12,ENE,59,1.0,6.0,71,0.00,,,0.00,,2013-03-04 17:22:00,
2013-03-04 11:32:00,27.0,19.0,30.11,ENE,61,2.0,7.0,71,0.00,,,0.00,,2013-03-04 17:32:00,
2013-03-04 11:42:00,27.0,19.0,30.11,ENE,61,2.0,7.0,71,0.00,,,0.00,,2013-03-04 17:42:00,
2013-03-04 11:52:00,28.0,20.0,30.11,SE,146,2.0,11.0,71,0.00,,,0.00,,2013-03-04 17:52:00,
2013-03-04 12:01:00,28.0,20.0,30.11,ESE,117,2.0,12.0,70,0.00,,,0.00,,2013-03-04 18:01:00,
2013-03-04 12:11:00,28.0,20.0,30.11,ESE,117,2.0,12.0,70,0.00,,,0.00,,2013-03-04 18:11:00,
2013-03-04 12:21:00,29.0,21.0,30.10,East,96,2.0,10.0,71,0.00,,,0.00,,2013-03-04 18:21:00,
2013-03-04 12:32:00,30.0,21.0,30.10,ESE,115,7.0,11.0,70,0.00,,,0.00,,2013-03-04 18:32:00,
2013-03-04 12:42:00,30.0,21.0,30.10,ESE,115,7.0,11.0,70,0.00,,,0.00,,2013-03-04 18:42:00,
2013-03-04 12:52:00,30.0,21.0,30.09,ENE,66,3.0,9.0,70,0.00,,,0.00,,2013-03-04 18:52:00,
2013-03-04 13:02:00,31.0,22.0,30.09,ESE,102,8.0,12.0,69,0.00,,,0.00,,2013-03-04 19:02:00,
2013-03-04 13:11:00,31.0,22.0,30.09,ESE,102,8.0,12.0,69,0.00,,,0.00,,2013-03-04 19:11:00,
2013-03-04 13:21:00,31.0,22.0,30.09,East,82,2.0,11.0,69,0.00,,,0.00,,2013-03-04 19:21:00,
2013-03-04 13:32:00,31.0,22.0,30.08,ENE,67,3.0,9.0,70,0.00,,,0.00,,2013-03-04 19:32:00,
2013-03-04 13:42:00,31.0,22.0,30.08,ENE,67,3.0,9.0,70,0.00,,,0.00,,2013-03-04 19:42:00,
2013-03-04 13:51:00,31.0,22.0,30.07,South,183,6.0,9.0,70,0.00,,,0.00,,2013-03-04 19:51:00,
2013-03-04 14:01:00,31.0,22.0,30.07,ESE,120,5.0,11.0,70,0.00,,,0.00,,2013-03-04 20:01:00,
2013-03-04 14:11:00,31.0,22.0,30.07,ESE,120,5.0,11.0,70,0.00,,,0.00,,2013-03-04 20:11:00,
2013-03-04 14:22:00,31.0,23.0,30.07,East,101,2.0,9.0,71,0.00,,,0.00,,2013-03-04 20:22:00,
2013-03-04 14:32:00,31.0,23.0,30.07,East,88,2.0,9.0,72,0.00,,,0.00,,2013-03-04 20:32:00,
2013-03-04 14:42:00,31.0,23.0,30.07,East,88,2.0,9.0,72,0.00,,,0.00,,2013-03-04 20:42:00,
2013-03-04 14:52:00,31.0,23.0,30.07,ESE,108,3.0,10.0,73,0.00,,,0.00,,2013-03-04 20:52:00,
2013-03-04 15:02:00,31.0,24.0,30.06,SE,126,7.0,9.0,74,0.00,,,0.00,,2013-03-04 21:02:00,
2013-03-04 15:11:00,31.0,24.0,30.06,SE,126,7.0,9.0,74,0.00,,,0.00,,2013-03-04 21:11:00,
2013-03-04 15:21:00,31.0,24.0,30.07,ENE,77,4.0,10.0,75,0.00,,,0.00,,2013-03-04 21:21:00,
2013-03-04 15:32:00,31.0,25.0,30.06,East,93,2.0,8.0,77,0.00,,,0.00,,2013-03-04 21:32:00,
2013-03-04 15:42:00,31.0,25.0,30.06,East,93,2.0,8.0,77,0.00,,,0.00,,2013-03-04 21:42:00,
2013-03-04 15:52:00,31.0,25.0,30.06,East,94,1.0,9.0,78,0.00,,,0.00,,2013-03-04 21:52:00,
2013-03-04 16:01:00,30.0,24.0,30.06,ESE,103,3.0,11.0,78,0.00,,,0.00,,2013-03-04 22:01:00,
2013-03-04 16:12:00,30.0,24.0,30.06,ESE,103,3.0,11.0,78,0.00,,,0.00,,2013-03-04 22:12:00,
2013-03-04 16:22:00,31.0,25.0,30.06,East,82,3.0,9.0,77,0.00,,,0.00,,2013-03-04 22:22:00,
2013-03-04 16:32:00,30.0,24.0,30.06,East,88,5.0,11.0,77,0.00,,,0.00,,2013-03-04 22:32:00,
2013-03-04 16:42:00,30.0,24.0,30.06,East,88,5.0,11.0,77,0.00,,,0.00,,2013-03-04 22:42:00,
2013-03-04 16:52:00,30.0,24.0,30.06,ESE,113,4.0,8.0,77,0.00,,,0.00,,2013-03-04 22:52:00,
2013-03-04 17:01:00,30.0,24.0,30.06,ENE,77,4.0,8.0,77,0.00,,,0.00,,2013-03-04 23:01:00,
2013-03-04 17:11:00,30.0,24.0,30.06,ENE,77,4.0,8.0,77,0.00,,,0.00,,2013-03-04 23:11:00,
2013-03-04 17:21:00,29.0,23.0,30.06,ENE,59,3.0,7.0,78,0.00,,,0.00,,2013-03-04 23:21:00,
2013-03-04 17:32:00,29.0,23.0,30.06,ESE,102,1.0,9.0,79,0.00,,,0.00,,2013-03-04 23:32:00,
2013-03-04 17:42:00,29.0,23.0,30.06,ESE,102,1.0,9.0,79,0.00,,,0.00,,2013-03-04 23:42:00,
2013-03-04 17:52:00,28.0,22.0,30.06,ESE,117,2.0,8.0,79,0.00,,,0.00,,2013-03-04 23:52:00,
2013-03-04 18:02:00,28.0,22.0,30.06,NE,36,3.0,6.0,79,0.00,,,0.00,,2013-03-05 00:02:00,
2013-03-04 18:11:00,28.0,22.0,30.06,NE,36,3.0,6.0,79,0.00,,,0.00,,2013-03-05 00:11:00,
2013-03-04 18:21:00,28.0,23.0,30.09,ENE,57,3.0,7.0,80,0.00,,,0.00,,2013-03-05 00:21:00,
2013-03-04 18:32:00,28.0,23.0,30.10,East,87,1.0,7.0,80,0.00,,,0.00,,2013-03-05 00:32:00,
2013-03-04 18:42:00,28.0,23.0,30.10,East,87,1.0,7.0,80,0.00,,,0.00,,2013-03-05 00:42:00,
2013-03-04 18:51:00,28.0,22.0,30.10,NNE,15,2.0,9.0,79,0.00,,,0.00,,2013-03-05 00:51:00,
2013-03-04 19:01:00,28.0,22.0,30.10,East,96,5.0,10.0,79,0.00,,,0.00,,2013-03-05 01:01:00,
2013-03-04 19:12:00,28.0,22.0,30.10,East,96,5.0,10.0,79,0.00,,,0.00,,2013-03-05 01:12:00,
2013-03-04 19:21:00,27.0,21.0,30.10,ESE,123,3.0,9.0,79,0.00,,,0.00,,2013-03-05 01:21:00,
2013-03-04 19:32:00,27.0,22.0,30.10,East,99,5.0,7.0,80,0.00,,,0.00,,2013-03-05 01:32:00,
2013-03-04 19:41:00,27.0,22.0,30.10,East,99,5.0,7.0,80,0.00,,,0.00,,2013-03-05 01:41:00,
2013-03-04 19:51:00,27.0,22.0,30.11,ESE,104,1.0,5.0,80,0.00,,,0.00,,2013-03-05 01:51:00,
2013-03-04 20:01:00,27.0,22.0,30.11,NE,54,3.0,5.0,81,0.00,,,0.00,,2013-03-05 02:01:00,
2013-03-04 20:11:00,27.0,22.0,30.11,NE,54,3.0,5.0,81,0.00,,,0.00,,2013-03-05 02:11:00,
2013-03-04 20:22:00,27.0,22.0,30.11,East,91,1.0,5.0,80,0.00,,,0.00,,2013-03-05 02:22:00,
2013-03-04 20:32:00,27.0,22.0,30.11,East,89,1.0,6.0,80,0.00,,,0.00,,2013-03-05 02:32:00,
2013-03-04 20:42:00,27.0,22.0,30.11,East,89,1.0,6.0,80,0.00,,,0.00,,2013-03-05 02:42:00,
2013-03-04 20:52:00,27.0,22.0,30.10,East,100,2.0,5.0,81,0.00,,,0.00,,2013-03-05 02:52:00,
2013-03-04 21:02:00,27.0,22.0,30.11,East,94,3.0,5.0,81,0.00,,,0.00,,2013-03-05 03:02:00,
2013-03-04 21:12:00,27.0,22.0,30.11,East,94,3.0,5.0,81,0.00,,,0.00,,2013-03-05 03:12:00,
2013-03-04 21:22:00,27.0,22.0,30.11,ENE,78,1.0,4.0,81,0.00,,,0.00,,2013-03-05 03:22:00,
2013-03-04 21:32:00,27.0,22.0,30.11,ENE,76,4.0,5.0,82,0.00,,,0.00,,2013-03-05 03:32:00,
2013-03-04 21:42:00,27.0,22.0,30.11,ENE,76,4.0,5.0,82,0.00,,,0.00,,2013-03-05 03:42:00,
2013-03-04 21:51:00,27.0,22.0,30.11,NNE,21,0.0,8.0,82,0.00,,,0.00,,2013-03-05 03:51:00,
2013-03-04 22:01:00,27.0,22.0,30.11,ENE,77,1.0,5.0,82,0.00,,,0.00,,2013-03-05 04:01:00,
2013-03-04 22:11:00,27.0,22.0,30.11,ENE,77,1.0,5.0,82,0.00,,,0.00,,2013-03-05 04:11:00,
2013-03-04 22:21:00,27.0,22.0,30.11,East,88,3.0,5.0,82,0.00,,,0.00,,2013-03-05 04:21:00,
2013-03-04 22:32:00,27.0,23.0,30.11,ENE,60,3.0,7.0,83,0.00,,,0.00,,2013-03-05 04:32:00,
2013-03-04 22:42:00,27.0,23.0,30.11,ENE,60,3.0,7.0,83,0.00,,,0.00,,2013-03-05 04:42:00,
2013-03-04 22:51:00,27.0,23.0,30.10,ENE,61,2.0,8.0,83,0.00,,,0.00,,2013-03-05 04:51:00,
2013-03-04 23:02:00,27.0,23.0,30.10,ESE,115,2.0,8.0,83,0.00,,,0.00,,2013-03-05 05:02:00,
2013-03-04 23:11:00,27.0,23.0,30.10,ESE,115,2.0,8.0,83,0.00,,,0.00,,2013-03-05 05:11:00,
2013-03-04 23:22:00,27.0,23.0,30.10,ENE,59,3.0,9.0,84,0.00,,,0.00,,2013-03-05 05:22:00,
2013-03-04 23:32:00,27.0,23.0,30.10,NE,42,4.0,8.0,84,0.00,,,0.00,,2013-03-05 05:32:00,
2013-03-04 23:42:00,27.0,23.0,30.10,NE,42,4.0,8.0,84,0.00,,,0.00,,2013-03-05 05:42:00,
2013-03-04 23:52:00,27.0,23.0,30.10,NE,45,2.0,10.0,84,0.00,,,0.00,,2013-03-05 05:52:00,